Weather History for KIML - March, 2013

Change the Weather History Date:

Monday, March 4, 2013

  Actual Average Record
Temperature  
Mean Temperature 37 °F 36 °F  
Max Temperature 52 °F 50 °F 80 °F (1921)
Min Temperature 24 °F 22 °F -5 °F (1952)
Degree Days  
Heating Degree Days 28 29  
Month to date heating degree days 95 117  
Cooling Degree Days 0 0  
Month to date cooling degree days 0 0  
Year to date cooling degree days 0 0  
Moisture  
Dew Point 20 °F    
Average Humidity 60    
Maximum Humidity 85    
Minimum Humidity 35    
Precipitation  
Precipitation T in 0.03 in 1.95 in (1981)
Sea Level Pressure  
Sea Level Pressure 29.92 in    
Wind  
Wind Speed 18 mph (NNW)    
Max Wind Speed 30 mph    
Max Gust Speed 41 mph    
Visibility 9 miles    
Events Snow    
T = Trace of Precipitation, MM = Missing Value Source: NWS Daily Summary

Daily Weather History Graph

Daily Weather History Graph

Search for Another Location

Airport or City:

Trip Planner

Search our weather history database for the weather conditions in past years. The results will help you decide how hot, cold, wet, or windy it might be!

Date:

Astronomy

Mar. 04, 2013 Rise Set
Actual Time 6:15 AM MST 5:41 PM MST
Civil Twilight 5:47 AM MST 6:08 PM MST
Nautical Twilight 5:16 AM MST 6:40 PM MST
Astronomical Twilight 4:44 AM MST 7:12 PM MST
Moon 12:27 AM MST (3/4) 10:24 AM MST (3/4)
Length of Visible Light 12h 21m
Length of Day
11h 26m
Waning Gibbous, 51% of the Moon is Illuminated
Mar 4
Waning Gibbous
Mar 4
Last Quarter
Mar 11
New
Mar 19
First Quarter
Mar 27
Full

Hourly Weather History & Observations

Time (MST) Temp. Windchill Dew Point Humidity Pressure Visibility Wind Dir Wind Speed Gust Speed Precip Events Conditions
12:53 AM 46.0 °F 40.6 °F 30.9 °F 56% 29.60 in 10.0 mi WNW 11.5 mph - N/A   Clear
1:53 AM 46.0 °F 39.3 °F 30.0 °F 54% 29.65 in 10.0 mi NW 16.1 mph - N/A   Clear
2:53 AM 39.9 °F 30.0 °F 28.9 °F 65% 29.70 in 10.0 mi NNW 21.9 mph 31.1 mph N/A   Clear
3:53 AM 35.1 °F 25.5 °F 27.0 °F 72% 29.73 in 10.0 mi NNW 15.0 mph - N/A   Clear
4:53 AM 32.0 °F 22.1 °F 26.1 °F 79% 29.76 in 10.0 mi NNW 13.8 mph - N/A   Clear
5:53 AM 30.9 °F 22.2 °F 26.1 °F 82% 29.81 in 10.0 mi NNW 10.4 mph - N/A   Clear
6:53 AM 32.0 °F 23.6 °F 25.0 °F 75% 29.83 in 10.0 mi NW 10.4 mph - N/A   Partly Cloudy
7:53 AM 32.0 °F 21.2 °F 25.0 °F 75% 29.83 in 10.0 mi North 16.1 mph - N/A   Mostly Cloudy
8:53 AM 39.9 °F 31.4 °F 21.9 °F 49% 29.83 in 10.0 mi North 16.1 mph - N/A   Clear
9:53 AM 39.0 °F 29.9 °F 21.0 °F 49% 29.83 in 10.0 mi North 17.3 mph - N/A   Overcast
10:53 AM 43.0 °F 35.1 °F 23.0 °F 45% 29.83 in 10.0 mi North 17.3 mph 26.5 mph N/A   Overcast
11:53 AM 41.0 °F 32.2 °F 18.0 °F 40% 29.85 in 10.0 mi NNW 18.4 mph 26.5 mph N/A   Overcast
12:53 PM 39.9 °F 29.5 °F 19.9 °F 45% 29.89 in 9.0 mi NNW 24.2 mph 29.9 mph N/A   Overcast
1:00 PM 35.6 °F 24.5 °F 24.8 °F 65% 29.88 in 1.5 mi NW 20.7 mph 31.1 mph 0.00 in Snow Light Snow
1:04 PM 33.8 °F 24.8 °F 26.6 °F 75% 29.88 in 0.8 mi North 12.7 mph 31.1 mph 0.00 in Snow Light Snow
1:12 PM 35.6 °F 28.6 °F 26.6 °F 70% 29.86 in 2.5 mi North 9.2 mph - 0.00 in Snow Light Snow
1:19 PM 37.4 °F 29.3 °F 24.8 °F 60% 29.87 in 9.0 mi North 12.7 mph - 0.00 in   Overcast
1:35 PM 37.4 °F 29.3 °F 24.8 °F 60% 29.88 in 7.0 mi North 12.7 mph 25.3 mph 0.00 in   Overcast
1:53 PM 39.0 °F 32.3 °F 21.0 °F 49% 29.90 in 10.0 mi North 10.4 mph - 0.00 in   Overcast
2:53 PM 39.9 °F 31.8 °F 17.1 °F 40% 29.98 in 10.0 mi NNW 15.0 mph 25.3 mph N/A   Overcast
3:53 PM 37.9 °F 25.9 °F 12.0 °F 35% 30.02 in 10.0 mi NNW 28.8 mph 35.7 mph N/A   Mostly Cloudy
4:53 PM 36.0 °F 25.6 °F 10.9 °F 36% 30.09 in 10.0 mi NNW 18.4 mph - N/A   Scattered Clouds
5:53 PM 34.0 °F 20.3 °F 10.0 °F 37% 30.14 in 10.0 mi NNW 29.9 mph 36.8 mph N/A   Clear
6:53 PM 30.0 °F 17.5 °F 10.9 °F 45% 30.19 in 10.0 mi North 19.6 mph - N/A   Clear
7:53 PM 28.0 °F 12.5 °F 8.1 °F 43% 30.21 in 10.0 mi NNW 28.8 mph 41.4 mph N/A   Clear
8:53 PM 26.1 °F 11.6 °F 9.0 °F 49% 30.23 in 10.0 mi NNW 21.9 mph 28.8 mph N/A   Clear
9:53 PM 26.1 °F 14.0 °F 10.0 °F 51% 30.26 in 10.0 mi NW 15.0 mph - N/A   Clear
10:53 PM 24.1 °F 13.1 °F 10.9 °F 57% 30.26 in 10.0 mi NW 11.5 mph - N/A   Clear